CSN123 ZBAA-ZSQD

Flight info

Callsign CSN123
Flight time 0h 35m
Altitude 41100
Route MUGLO W34 ANRAT W575 GOTSU W201 HCH
Aircraft B748/H-SDE3FGHIM1M2RWXY/LB1

Departure

Time 2026-04-18 11:04
Airport Beijing Capital International Airport (ZBAA)

Arrival

Time 2026-04-18 11:40
Airport Qingdao Jiaodong International Airport (ZSQD)
Time Latitude Longitude Altitude Speed Heading
2026-04-18 10:34 40.08570 116.58961 131 ft 0 kts 353°
2026-04-18 10:54 40.08566 116.58962 125 ft 2 kts 354°
2026-04-18 10:55 40.08549 116.58961 127 ft 2 kts 12°
2026-04-18 10:55 40.08534 116.58955 125 ft 2 kts 31°
2026-04-18 10:55 40.08521 116.58942 125 ft 2 kts 50°
2026-04-18 10:55 40.08511 116.58924 125 ft 2 kts 64°
2026-04-18 10:56 40.08504 116.58904 125 ft 2 kts 73°
2026-04-18 10:56 40.08500 116.58883 125 ft 2 kts 79°
2026-04-18 10:56 40.08499 116.58871 125 ft 1 kts 82°
2026-04-18 10:56 40.08498 116.58870 125 ft 0 kts 82°
2026-04-18 10:59 40.08500 116.58886 125 ft 5 kts 82°
2026-04-18 10:59 40.08507 116.58959 127 ft 11 kts 84°
2026-04-18 11:00 40.08518 116.59084 128 ft 16 kts 84°
2026-04-18 11:00 40.08548 116.59226 125 ft 15 kts 43°
2026-04-18 11:00 40.08653 116.59240 129 ft 18 kts 353°
2026-04-18 11:00 40.08779 116.59230 128 ft 14 kts 18°
2026-04-18 11:01 40.08815 116.59301 126 ft 0 kts 80°
2026-04-18 11:03 40.08817 116.59321 127 ft 5 kts 83°
2026-04-18 11:03 40.08825 116.59394 128 ft 11 kts 81°
2026-04-18 11:03 40.08803 116.59498 125 ft 12 kts 138°
2026-04-18 11:03 40.08718 116.59522 126 ft 17 kts 174°
2026-04-18 11:04 40.08551 116.59547 128 ft 31 kts 173°
2026-04-18 11:04 40.08113 116.59615 126 ft 108 kts 173°
2026-04-18 11:04 40.07075 116.59771 141 ft 189 kts 174°
2026-04-18 11:04 40.05706 116.59919 808 ft 191 kts 177°
2026-04-18 11:05 40.04431 116.60016 1646 ft 189 kts 169°
2026-04-18 11:05 40.03095 116.60369 2102 ft 203 kts 171°
2026-04-18 11:05 40.01643 116.60646 2532 ft 220 kts 174°
2026-04-18 11:05 40.00062 116.60879 3129 ft 237 kts 175°
2026-04-18 11:06 39.98359 116.61132 3720 ft 252 kts 175°
2026-04-18 11:06 39.96590 116.61410 4508 ft 262 kts 175°
2026-04-18 11:06 39.94775 116.61698 5302 ft 265 kts 176°
2026-04-18 11:06 39.92933 116.61985 6126 ft 269 kts 176°
2026-04-18 11:07 39.91049 116.62277 6846 ft 275 kts 176°
2026-04-18 11:07 39.89129 116.62576 7564 ft 281 kts 176°
2026-04-18 11:07 39.87166 116.62882 8263 ft 287 kts 176°
2026-04-18 11:07 39.85169 116.63192 8973 ft 292 kts 176°
2026-04-18 11:08 39.83136 116.63508 9683 ft 297 kts 176°
2026-04-18 11:08 39.81065 116.63825 10304 ft 304 kts 176°
2026-04-18 11:08 39.79017 116.64132 10630 ft 320 kts 176°
2026-04-18 11:08 39.76741 116.64477 10927 ft 338 kts 176°
2026-04-18 11:09 39.74338 116.64845 11198 ft 358 kts 176°
2026-04-18 11:09 39.71802 116.65233 11468 ft 377 kts 176°
2026-04-18 11:09 39.69148 116.65638 11967 ft 388 kts 176°
2026-04-18 11:09 39.66443 116.66084 12643 ft 396 kts 172°
2026-04-18 11:10 39.63789 116.67188 13340 ft 405 kts 160°
2026-04-18 11:10 39.61247 116.68787 13986 ft 413 kts 148°
2026-04-18 11:10 39.59051 116.71215 14631 ft 419 kts 131°
2026-04-18 11:10 39.57352 116.74305 15294 ft 424 kts 121°
2026-04-18 11:11 39.55882 116.77633 15952 ft 427 kts 118°
2026-04-18 11:11 39.54433 116.81018 16639 ft 431 kts 120°
2026-04-18 11:11 39.52839 116.84320 17308 ft 434 kts 123°
2026-04-18 11:11 39.51171 116.87611 17970 ft 438 kts 122°
2026-04-18 11:12 39.49557 116.90974 18549 ft 441 kts 120°
2026-04-18 11:12 39.47975 116.94404 19094 ft 445 kts 120°
2026-04-18 11:12 39.46348 116.97830 19631 ft 448 kts 121°
2026-04-18 11:12 39.44694 117.01207 20142 ft 452 kts 121°
2026-04-18 11:13 39.42992 117.04719 20534 ft 457 kts 121°
2026-04-18 11:13 39.41329 117.08220 20569 ft 456 kts 121°
2026-04-18 11:13 39.39686 117.11663 20571 ft 456 kts 121°
2026-04-18 11:13 39.38005 117.15132 20571 ft 455 kts 121°
2026-04-18 11:14 39.36323 117.18600 20577 ft 455 kts 121°
2026-04-18 11:14 39.32626 117.26277 20577 ft 455 kts 121°
2026-04-18 11:14 39.25898 117.40151 20575 ft 457 kts 121°
2026-04-18 11:14 39.18855 117.54616 20593 ft 491 kts 121°
2026-04-18 11:15 39.11455 117.69742 20597 ft 505 kts 122°
2026-04-18 11:15 39.03944 117.85024 20620 ft 507 kts 122°
2026-04-18 11:15 38.96370 118.00361 20623 ft 507 kts 122°
2026-04-18 11:15 38.88782 118.15654 20621 ft 507 kts 122°
2026-04-18 11:16 38.81175 118.30912 20624 ft 507 kts 122°
2026-04-18 11:16 38.73549 118.46136 20625 ft 507 kts 122°
2026-04-18 11:16 38.65906 118.61321 20632 ft 507 kts 122°
2026-04-18 11:16 38.58249 118.76462 20640 ft 506 kts 122°
2026-04-18 11:17 38.50593 118.91532 20644 ft 505 kts 122°
2026-04-18 11:17 38.42911 119.06583 20645 ft 505 kts 122°
2026-04-18 11:17 38.35221 119.21579 20657 ft 505 kts 123°
2026-04-18 11:17 38.27530 119.36509 20664 ft 504 kts 123°
2026-04-18 11:18 38.19818 119.51412 20674 ft 504 kts 123°
2026-04-18 11:18 38.12194 119.66077 20676 ft 504 kts 123°
2026-04-18 11:18 38.04465 119.80879 20679 ft 503 kts 123°
2026-04-18 11:18 37.96614 119.95846 20680 ft 503 kts 123°
2026-04-18 11:19 37.88857 120.10565 20687 ft 502 kts 123°
2026-04-18 11:19 37.81094 120.25233 20675 ft 502 kts 123°
2026-04-18 11:19 37.75478 120.35803 20683 ft 501 kts 123°
2026-04-18 11:19 37.72263 120.41807 20683 ft 500 kts 126°
2026-04-18 11:20 37.69932 120.45061 20691 ft 500 kts 138°
2026-04-18 11:20 37.67138 120.47661 20690 ft 500 kts 150°
2026-04-18 11:20 37.63994 120.49515 20693 ft 499 kts 162°
2026-04-18 11:20 37.60641 120.50545 20696 ft 494 kts 173°
2026-04-18 11:21 37.57284 120.50726 20699 ft 472 kts 185°
2026-04-18 11:21 37.54114 120.50155 20697 ft 450 kts 195°
2026-04-18 11:21 37.51166 120.49059 20686 ft 436 kts 199°
2026-04-18 11:21 37.48248 120.47922 20679 ft 439 kts 199°
2026-04-18 11:22 37.45328 120.46824 20466 ft 436 kts 198°
2026-04-18 11:22 37.42424 120.45742 19977 ft 433 kts 198°
2026-04-18 11:22 37.39546 120.44650 19440 ft 431 kts 199°
2026-04-18 11:22 37.36687 120.43557 18900 ft 428 kts 198°
2026-04-18 11:23 37.33843 120.42482 18385 ft 426 kts 198°
2026-04-18 11:23 37.31014 120.41420 17815 ft 423 kts 198°
2026-04-18 11:23 37.28202 120.40360 17238 ft 420 kts 198°
2026-04-18 11:23 37.25408 120.39302 16701 ft 417 kts 198°
2026-04-18 11:24 37.22672 120.38270 16177 ft 415 kts 198°
2026-04-18 11:24 37.19913 120.37234 15660 ft 412 kts 198°
2026-04-18 11:24 37.17175 120.36204 15149 ft 409 kts 198°
2026-04-18 11:24 37.14458 120.35182 14651 ft 406 kts 197°
2026-04-18 11:25 37.11762 120.34168 14166 ft 403 kts 197°
2026-04-18 11:25 37.09081 120.33163 13665 ft 401 kts 197°
2026-04-18 11:25 37.06418 120.32164 13196 ft 397 kts 197°
2026-04-18 11:25 37.03809 120.31187 13029 ft 385 kts 197°
2026-04-18 11:26 37.01286 120.30244 12971 ft 371 kts 197°
2026-04-18 11:26 36.98857 120.29333 12909 ft 359 kts 197°
2026-04-18 11:26 36.96529 120.28461 12793 ft 339 kts 197°
2026-04-18 11:26 36.94415 120.27411 12673 ft 317 kts 215°
2026-04-18 11:27 36.92831 120.25622 12448 ft 302 kts 231°
2026-04-18 11:27 36.91951 120.24285 12166 ft 299 kts 232°
2026-04-18 11:27 36.90231 120.21592 11576 ft 294 kts 232°
2026-04-18 11:27 36.88948 120.19613 11143 ft 292 kts 231°
2026-04-18 11:28 36.88099 120.18320 10852 ft 290 kts 231°
2026-04-18 11:28 36.86824 120.16373 10425 ft 288 kts 231°
2026-04-18 11:28 36.85575 120.14457 10015 ft 277 kts 231°
2026-04-18 11:28 36.84040 120.12092 9414 ft 251 kts 228°
2026-04-18 11:29 36.82975 120.10468 9060 ft 233 kts 228°
2026-04-18 11:29 36.82286 120.09416 8739 ft 231 kts 228°
2026-04-18 11:29 36.81279 120.07879 8387 ft 228 kts 228°
2026-04-18 11:29 36.80283 120.06355 8029 ft 225 kts 228°
2026-04-18 11:30 36.79308 120.04865 7658 ft 224 kts 228°
2026-04-18 11:30 36.78339 120.03385 7540 ft 221 kts 228°
2026-04-18 11:30 36.77355 120.01884 7444 ft 222 kts 228°
2026-04-18 11:30 36.76372 120.00384 7349 ft 223 kts 228°
2026-04-18 11:31 36.75390 119.98885 7247 ft 223 kts 227°
2026-04-18 11:31 36.74410 119.97392 7141 ft 222 kts 228°
2026-04-18 11:31 36.73432 119.95901 7027 ft 222 kts 228°
2026-04-18 11:31 36.72360 119.94544 6903 ft 219 kts 206°
2026-04-18 11:32 36.70934 119.94003 6806 ft 215 kts 179°
2026-04-18 11:32 36.69486 119.94354 6592 ft 213 kts 161°
2026-04-18 11:32 36.68082 119.94924 6298 ft 211 kts 161°
2026-04-18 11:32 36.66688 119.95495 6001 ft 210 kts 161°
2026-04-18 11:33 36.65296 119.96052 5729 ft 211 kts 161°
2026-04-18 11:33 36.63895 119.96611 5452 ft 211 kts 161°
2026-04-18 11:33 36.62508 119.97164 5171 ft 209 kts 161°
2026-04-18 11:33 36.61135 119.97708 4887 ft 205 kts 162°
2026-04-18 11:34 36.59818 119.98226 4583 ft 192 kts 161°
2026-04-18 11:34 36.58589 119.98711 4294 ft 179 kts 161°
2026-04-18 11:34 36.57446 119.99162 4054 ft 168 kts 161°
2026-04-18 11:34 36.56327 119.99604 3838 ft 169 kts 161°
2026-04-18 11:35 36.55202 120.00047 3646 ft 169 kts 161°
2026-04-18 11:35 36.54084 120.00488 3486 ft 169 kts 161°
2026-04-18 11:35 36.52965 120.00930 3302 ft 169 kts 161°
2026-04-18 11:35 36.51845 120.01372 3088 ft 168 kts 161°
2026-04-18 11:36 36.50739 120.01807 2865 ft 167 kts 161°
2026-04-18 11:36 36.49641 120.02241 2640 ft 163 kts 161°
2026-04-18 11:36 36.48550 120.02671 2410 ft 163 kts 161°
2026-04-18 11:36 36.47474 120.03093 2185 ft 163 kts 161°
2026-04-18 11:37 36.46399 120.03515 1974 ft 161 kts 162°
2026-04-18 11:37 36.45322 120.03934 1755 ft 161 kts 161°
2026-04-18 11:37 36.44263 120.04351 1536 ft 160 kts 161°
2026-04-18 11:37 36.43204 120.04769 1314 ft 158 kts 160°
2026-04-18 11:38 36.42159 120.05181 1093 ft 157 kts 162°
2026-04-18 11:38 36.41108 120.05593 895 ft 159 kts 162°
2026-04-18 11:38 36.40054 120.06007 690 ft 159 kts 162°
2026-04-18 11:38 36.38981 120.06430 481 ft 160 kts 162°
2026-04-18 11:39 36.37912 120.06851 269 ft 161 kts 162°
2026-04-18 11:39 36.36850 120.07261 64 ft 160 kts 162°
2026-04-18 11:39 36.35908 120.07633 42 ft 109 kts 162°
2026-04-18 11:39 36.35376 120.07840 42 ft 65 kts 163°
2026-04-18 11:40 36.34976 120.08013 41 ft 57 kts 150°
2026-04-18 11:40 36.34724 120.08302 41 ft 27 kts 120°
2026-04-18 11:40 36.34715 120.08337 42 ft 0 kts 95°
2026-04-18 11:41 36.34714 120.08341 42 ft 4 kts 99°
2026-04-18 11:41 36.34684 120.08446 42 ft 17 kts 104°
2026-04-18 11:41 36.34700 120.08572 42 ft 13 kts 78°
2026-04-18 11:41 36.34675 120.08652 42 ft 8 kts 137°
2026-04-18 11:42 36.34614 120.08682 42 ft 12 kts 169°
2026-04-18 11:42 36.34571 120.08645 42 ft 7 kts 250°
2026-04-18 11:42 36.34560 120.08607 42 ft 0 kts 250°